Location: Praha
(50.0830°N, 14.4670°E)
Time: 19:37:44
(UTC+01:00)

BlueWalker 3 - Visible Passes

Search period start: 09 December 2022 00:00
Search period end: 19 December 2022 00:00
Orbit: 501 x 518 km, 53.2° (Epoch: 08 December)

Date Brightness Start Highest point End Pass type
(mag) Time Alt. Az. Time Alt. Az. Time Alt. Az.
09 Dec 2.0 16:30:17 10° WNW 16:34:11 66° NNE 16:38:04 10° E visible
09 Dec 3.0 18:09:04 10° WNW 18:12:46 42° SW 18:14:44 23° SSE visible
10 Dec 3.2 17:50:40 10° WNW 17:54:21 40° SW 17:57:54 11° SE visible
11 Dec 3.4 17:32:15 10° WNW 17:35:55 38° SW 17:39:32 10° SSE visible
12 Dec 3.5 17:13:50 10° WNW 17:17:28 37° SW 17:21:04 10° SSE visible
13 Dec 3.7 16:55:26 10° WNW 16:59:01 35° SW 17:02:35 10° SSE visible
14 Dec 3.9 16:37:00 10° WNW 16:40:33 33° SW 16:44:05 10° SSE visible
